• Join FlightAware (Why Join?)
  • Login
  • US Flag GB Flag 
06:34 EDT


 

Airport Tracker/Info


-or-


 

Live Flight TrackerFlight Track Log ✈ AAY883 ✈ 04-May-2014 ✈ KGRR - KPIE

Flight Track Log - Related Links

Times and Time Zones

All times are in EDT time to prevent confusion due to time zone crossing. See the AAY883 flight status page for this flight to view local times or setup timezone preferences in your user account.

Time Position Orientation Groundspeed Altitude Reporting Facility
EDT Latitude Longitude Course Direction KTS MPH feet Rate Location/Type
21:17 42.8600 -85.5814 212° Southwest 175 201 2,600  Level Chicago Center
21:18 42.8031 -85.6294 212° Southwest 245 282 4,400 2,340 Climbing Chicago Center
21:19 42.7386 -85.6906 215° Southwest 272 313 7,500 2,700 Climbing Chicago Center
21:20 42.6547 -85.6856 177° South 309 356 10,100 1,980 Climbing Chicago Center
21:22 42.5581 -85.6564 167° South 362 417 11,600 2,220 Climbing Chicago Center
21:23 42.4311 -85.6178 167° South 385 443 14,700 2,520 Climbing Chicago Center
21:24 42.3211 -85.5844 167° South 401 461 16,900 1,800 Climbing Chicago Center
21:25 42.2064 -85.5489 167° South 421 484 18,400 1,680 Climbing Chicago Center
21:26 42.0911 -85.5161 168° South 422 486 20,400 1,860 Climbing Chicago Center
21:27 41.9583 -85.4758 167° South 437 503 22,300 1,620 Climbing Chicago Center
21:28 41.8336 -85.4386 167° South 452 520 23,800 1,560 Climbing Chicago Center
21:29 41.6969 -85.3986 168° South 467 537 25,500 1,500 Climbing Chicago Center
21:30 41.5633 -85.3592 168° South 476 548 26,900 1,080 Climbing Chicago Center
21:31 41.4317 -85.3183 167° South 482 555 27,800 960 Climbing Chicago Center
21:32 41.2972 -85.2789 168° South 490 564 29,000 1,080 Climbing Chicago Center
21:33 41.1606 -85.2389 168° South 496 571 30,100 1,080 Climbing Chicago Center
21:34 41.0222 -85.1994 168° South 505 581 31,300 1,200 Climbing Chicago Center
21:35 40.8836 -85.1567 167° South 507 583 32,700 1,140 Climbing Chicago Center
21:36 40.7481 -85.1117 166° South 507 583 33,700 960 Climbing Chicago Center
21:37 40.5947 -85.0633 167° South 504 580 34,700 960 Climbing Chicago Center
21:38 40.4831 -85.0278 166° South 506 582 35,500 840 Climbing Indianapolis Center
21:39 40.3450 -84.9836 166° South 506 582 36,300 720 Climbing Indianapolis Center
21:40 40.2083 -84.9389 166° South 506 582 37,000 240 Climbing Indianapolis Center
21:41 40.0603 -84.8933 167° South 498 573 36,900  Descending Indianapolis Center
21:42 39.9303 -84.8511 166° South 489 563 37,000  Climbing Indianapolis Center
21:43 39.8003 -84.8103 166° South 489 563 36,900 -60 Descending Indianapolis Center
21:44 39.6694 -84.7692 166° South 487 560 36,900  Level Indianapolis Center
21:45 39.5394 -84.7289 167° South 487 560 37,000  Climbing Indianapolis Center
21:46 39.4100 -84.6886 166° South 485 558 37,000 -60 Level Indianapolis Center
21:48 39.1272 -84.6294 171° South 471 542 36,900 -60 Descending Indianapolis Center
21:49 39.0000 -84.6239 178° South 461 531 36,900  Level Indianapolis Center
21:50 38.8800 -84.6192 178° South 460 529 36,900  Level Indianapolis Center
21:51 38.7511 -84.6147 178° South 460 529 37,000  Climbing Indianapolis Center
21:52 38.6069 -84.6103 179° South 460 529 37,000 -60 Level Indianapolis Center
21:53 38.4794 -84.6047 178° South 460 529 36,900  Descending Indianapolis Center
21:54 38.3494 -84.6000 178° South 460 529 37,000  Climbing Indianapolis Center
21:55 38.2197 -84.5950 178° South 464 534 37,000  Level Indianapolis Center
21:56 38.0928 -84.5900 178° South 462 532 37,000 -60 Level Indianapolis Center
21:57 37.9658 -84.5864 179° South 460 529 36,900 -60 Descending Indianapolis Center
21:58 37.8394 -84.5822 179° South 459 528 36,900  Level Indianapolis Center
21:59 37.7161 -84.5764 178° South 450 518 36,900  Level Indianapolis Center
22:00 37.5686 -84.5706 178° South 451 519 37,000  Climbing Indianapolis Center
22:01 37.4428 -84.5672 179° South 451 519 37,000  Level Indianapolis Center
22:02 37.3169 -84.5617 178° South 451 519 37,000  Level Indianapolis Center
22:03 37.1906 -84.5572 178° South 451 519 37,000  Level Indianapolis Center
22:04 37.0658 -84.5525 178° South 451 519 37,000  Level Indianapolis Center
22:05 36.9503 -84.5486 178° South 451 519 37,000 -60 Level Indianapolis Center
22:06 36.8003 -84.5433 178° South 451 519 36,900  Descending Indianapolis Center
22:07 36.6742 -84.5392 178° South 451 519 37,000  Climbing Indianapolis Center
22:08 36.5486 -84.5347 178° South 451 519 37,000  Level Indianapolis Center
22:09 36.4236 -84.5294 178° South 451 519 37,000 -60 Level Indianapolis Center
22:10 36.2981 -84.5258 179° South 450 518 36,900  Descending Indianapolis Center
22:11 36.1725 -84.5211 178° South 450 518 37,000  Climbing Indianapolis Center
22:12 36.0475 -84.5169 178° South 449 517 36,900  Descending Indianapolis Center
22:13 35.9217 -84.5114 178° South 449 517 37,000  Climbing Indianapolis Center
22:15 35.7950 -84.5072 178° South 449 517 37,000  Level Indianapolis Center
22:16 35.6689 -84.5033 179° South 449 517 37,000  Level Indianapolis Center
22:17 35.5433 -84.4994 179° South 449 517 37,000  Level Indianapolis Center
22:18 35.4150 -84.4950 178° South 456 525 37,000  Level Atlanta Center
22:19 35.2897 -84.4917 179° South 456 525 37,000  Level Atlanta Center
22:20 35.1644 -84.4883 179° South 456 525 37,000 -60 Level Atlanta Center
22:21 35.0414 -84.4828 178° South 456 525 36,900 -60 Descending Atlanta Center
22:22 34.9225 -84.4744 177° South 451 519 36,900  Level Atlanta Center
22:23 34.7975 -84.4739 180° South 445 512 36,900  Level Atlanta Center
22:24 34.6722 -84.4706 179° South 445 512 37,000  Climbing Atlanta Center
22:25 34.5492 -84.4650 178° South 445 512 37,000  Level Atlanta Center
22:26 34.4217 -84.4619 179° South 445 512 37,000 -60 Level Atlanta Center
22:27 34.2861 -84.4561 178° South 445 512 36,900  Descending Atlanta Center
22:28 34.1631 -84.4531 179° South 445 512 37,000  Climbing Atlanta Center
22:29 34.0483 -84.4525 180° South 451 519 37,000  Level Atlanta Center
22:30 33.9250 -84.4469 178° South 456 525 37,000 -60 Level Atlanta Center
22:31 33.7956 -84.4411 178° South 456 525 36,900 -60 Descending Atlanta Center
22:32 33.6747 -84.4381 179° South 456 525 36,900  Level Atlanta Center
22:33 33.5472 -84.4350 179° South 461 531 36,900  Level Atlanta Center
22:34 33.4200 -84.4319 179° South 456 525 37,000  Climbing Atlanta Center
22:35 33.2928 -84.4117 172° South 464 534 37,000  Level Atlanta Center
22:36 33.1572 -84.3911 173° South 458 527 37,000 -60 Level Atlanta Center
22:37 33.0339 -84.3708 172° South 458 527 36,900 -60 Descending Atlanta Center
22:38 32.9089 -84.3531 173° South 458 527 36,900  Level Atlanta Center
22:39 32.8067 -84.3403 174° South 458 527 36,900  Level Atlanta Center
22:40 32.6583 -84.3128 171° South 458 527 37,000  Climbing Atlanta Center
22:41 32.5333 -84.2950 173° South 458 527 37,000  Level Atlanta Center
22:42 32.4122 -84.2750 172° South 464 534 37,000 -60 Level Atlanta Center
22:44 32.1572 -84.2375 173° South 465 535 36,900 -60 Descending Jacksonville Center
22:45 32.0322 -84.2183 173° South 460 529 36,900  Level Jacksonville Center
22:46 31.9114 -84.1847 167° South 460 529 37,000  Climbing Jacksonville Center
22:47 31.7886 -84.1439 164° South 460 529 37,000  Level Jacksonville Center
22:48 31.6617 -84.0983 163° South 460 529 37,000  Level Jacksonville Center
22:49 31.5389 -84.0553 163° South 465 535 37,000  Level Jacksonville Center
22:50 31.4142 -84.0147 164° South 465 535 37,000 -60 Level Jacksonville Center
22:51 31.3039 -83.9747 163° South 465 535 36,900 -60 Descending Jacksonville Center
22:52 31.1811 -83.9294 162° South 465 535 36,900  Level Jacksonville Center
22:53 31.0581 -83.8869 164° South 460 529 37,000  Climbing Jacksonville Center
22:54 30.9353 -83.8444 163° South 455 524 36,900 -60 Descending Jacksonville Center
22:55 30.8144 -83.8044 164° South 455 524 36,900  Level Jacksonville Center
22:56 30.6936 -83.7622 163° South 455 524 36,900  Level Jacksonville Center
22:57 30.5686 -83.7225 165° South 455 524 36,900  Level Jacksonville Center
22:58 30.4519 -83.6806 163° South 449 517 36,900  Level Jacksonville Center
22:59 30.3292 -83.6361 163° South 455 524 36,900  Level Jacksonville Center
23:00 30.2019 -83.5967 165° South 455 524 36,900  Level Jacksonville Center
23:01 30.0811 -83.5550 163° South 460 529 36,900 -240 Level Jacksonville Center
23:02 29.9603 -83.5136 163° South 460 529 36,500 -660 Descending Jacksonville Center
23:03 29.8350 -83.4744 165° South 455 524 35,600 -960 Descending Jacksonville Center
23:04 29.7100 -83.4331 164° South 455 524 34,600 -1,080 Descending Jacksonville Center
23:05 29.5744 -83.3844 163° South 460 529 33,500 -1,080 Descending Jacksonville Center
23:06 29.4472 -83.3433 164° South 460 529 32,500 -1,320 Descending Jacksonville Center
23:07 29.3222 -83.2997 163° South 460 529 30,900 -2,340 Descending Jacksonville Center
23:08 29.1992 -83.2589 164° South 460 529 27,900 -2,760 Descending Jacksonville Center
23:09 29.0761 -83.2181 164° South 460 529 25,400 -2,580 Descending Jacksonville Center
23:10 28.9572 -83.1772 163° South 454 522 22,900 -2,460 Descending Jacksonville Center
23:11 28.8425 -83.1392 164° South 449 517 20,500 -2,400 Descending Jacksonville Center
23:12 28.7319 -83.1056 165° South 434 499 18,200 -2,220 Descending Jacksonville Center
23:13 28.6214 -83.0675 163° South 422 486 16,100 -1,980 Descending Jacksonville Center
23:13 28.5500 -83.0500 168° South 397 457 14,800 -1,680 Descending Tampa TRACON
23:14 28.4500 -83.0167 164° South 385 443 13,200 -1,380 Descending Tampa TRACON
23:15 28.3500 -82.9833 164° South 340 391 12,100 -1,080 Descending Tampa TRACON
23:16 28.2667 -82.9500 161° South 316 364 11,100 -1,200 Descending Tampa TRACON
23:17 28.1833 -82.9167 161° South 294 338 9,700 -1,500 Descending Tampa TRACON
23:18 28.1000 -82.8833 161° South 288 331 8,200 -1,500 Descending Tampa TRACON
23:19 28.0333 -82.8667 168° South 278 320 6,700 -1,260 Descending Tampa TRACON
23:20 27.9667 -82.8333 156° South 257 296 5,700 -840 Descending Tampa TRACON
23:21 27.9000 -82.8167 168° South 215 247 5,100 -840 Descending Tampa TRACON
23:22 27.8500 -82.8000 164° South 183 211 4,100 -1,200 Descending Tampa TRACON
23:23 27.8000 -82.7833 164° South 194 223 2,800 -1,200 Descending Tampa TRACON
23:24 27.8000 -82.7167 90° East 181 208 1,800 -600 Descending Tampa TRACON
23:25 27.8000 -82.6833 90° East 141 162 1,700 -360 Descending Tampa TRACON
23:26 27.8500 -82.6833 360° North 132 152 1,100 -600 Descending Tampa TRACON